Regional Weather Roundup
Issued by NWS Sioux Falls, SD

Home | Current Version | Previous Version | Text Only | Print | Product List | Glossary On
Versions: 1 2 3 4 5 6 7 8 9 10 11 12 13 14 15 16 17 18 19 20 21 22 23 24 25 26 27 28 29 30 31 32 33 34 35 36 37 38 39 40 41 42 43 44 45 46 47 48 49 50
000
ASUS43 KFSD 241010
RWRFSD

WEATHER ROUNDUP FOR SE SOUTH DAKOTA/SW MINNESOTA/NW IOWA
NATIONAL WEATHER SERVICE SIOUX FALLS SD
500 AM CDT SUN SEP 24 2017

NOTE: "FAIR" INDICATES FEW OR NO CLOUDS BELOW 12,000 FEET WITH NO
SIGNIFICANT WEATHER AND OR OBSTRUCTIONS TO VISIBILITY.


SDZ038>040-050-052>070-241100-
SOUTHEAST SOUTH DAKOTA

CITY           SKY/WX    TMP DP  RH WIND       PRES   REMARKS
BROOKINGS      PTCLDY    60  58  92 S3        29.87F
CHAMBERLAIN    LGT RAIN  55  55 100 W6        29.88R
HURON          CLOUDY    56  56 100 E3        29.85F
MADISON        FAIR      57  57 100 S5        29.88S
MITCHELL       CLOUDY    57  56  96 NE5       29.86F
SIOUX FALLS    PTCLDY    68  65  90 S12       29.86F
WINNER         LGT RAIN  53  51  93 W8        29.90S
$$

MNZ071-072-080-081-089-090-097-098-241100-
SOUTHWEST MINNESOTA

CITY           SKY/WX    TMP DP  RH WIND       PRES   REMARKS
FAIRMONT       CLEAR     67  64  90 S6        29.94S
JACKSON        CLEAR     66  61  82 CALM      29.94S
LUVERNE        CLOUDY    63  59  88 S5        29.89F
MARSHALL       FOG       57  57 100 SE10      29.89F VSB 1/2
MONTEVIDEO     FOG       63  63 100 S8        29.88F VSB 1/2
PIPESTONE      MOCLDY    63  61  94 SE9       29.89F
REDWOOD FALLS  FOG       61  59  93 SE7       29.90F VSB 1/4
TRACY          FOG       57  57 100 S3        29.91F VSB 1/2
WORTHINGTON    CLEAR     58  57  97 SE6       29.93S
$$

IAZ001>003-012>014-020>022-031-032-NEZ013-014-SDZ071-241100-
NORTHWEST IOWA

CITY           SKY/WX    TMP DP  RH WIND       PRES   REMARKS
DENISON        CLEAR     72  66  83 MISG      29.94S
ESTHERVILLE    CLEAR     63  63 100 S7        29.93S
LE MARS        PTCLDY    68  64  88 S7        29.89F
ORANGE CITY    CLEAR     70  66  88 SE6       29.90F
SHELDON        CLEAR     68  64  88 S8        29.89F
SIOUX CITY     CLEAR     64  64 100 SE7       29.89S
SPENCER        CLEAR     66  63  90 S7        29.93S
STORM LAKE     CLEAR     66  64  94 SE7       29.94R
$$

ABBREVIATIONS USED IN REMARKS
   TC - TEMPERATURE IN CELSIUS
  WCI - WIND CHILL INDEX
   HX - HEAT INDEX
  VSB - VISIBILITY





USA.gov is the U.S. government's official web portal to all federal, state and local government web resources and services.